| time (UTC) | temp F | wind direction | speed knots | gust knots | rain 1hr in | rain 24hr in | rain mn in | humidity % | barometer mb |
| 20260504001632 | 57 | 253 | 1.7 | 8.7 | 0.00 | 0.00 | 0.00 | 44 | 1010.1 |
| 20260504001132 | 57 | 253 | 2.6 | 9.6 | 0.00 | 0.00 | 0.00 | 44 | 1010.0 |
| 20260504000633 | 57 | 254 | 2.6 | 10.4 | 0.00 | 0.00 | 0.00 | 43 | 1010.0 |
| 20260504000125 | 57 | 253 | 1.7 | 10.4 | 0.00 | 0.00 | 0.00 | 43 | 1010.0 |
| 20260503235855 | 57 | 253 | 1.7 | 9.6 | 0.00 | 0.00 | 0.00 | 43 | 1010.1 |
| 20260503235124 | 57 | 253 | 1.7 | 9.6 | 0.00 | 0.00 | 0.00 | 42 | 1010.0 |
| 20260503234626 | 58 | 254 | 1.7 | 9.6 | 0.00 | 0.00 | 0.00 | 41 | 1009.9 |
| 20260503234125 | 58 | 254 | 1.7 | 9.6 | 0.00 | 0.00 | 0.00 | 42 | 1009.9 |
| 20260503233624 | 58 | 254 | 2.6 | 7.8 | 0.00 | 0.00 | 0.00 | 42 | 1009.9 |
| 20260503233119 | 58 | 254 | 2.6 | 7.8 | 0.00 | 0.00 | 0.00 | 41 | 1009.9 |
| 20260503232619 | 58 | 254 | 1.7 | 8.7 | 0.00 | 0.00 | 0.00 | 41 | 1009.9 |
| 20260503232351 | 58 | 254 | 0.9 | 8.7 | 0.00 | 0.00 | 0.00 | 42 | 1010.0 |
| 20260503231620 | 58 | 254 | 1.7 | 9.6 | 0.00 | 0.00 | 0.00 | 40 | 1010.0 |
| 20260503231119 | 58 | 254 | 2.6 | 9.6 | 0.00 | 0.00 | 0.00 | 40 | 1010.0 |
| 20260503230619 | 58 | 254 | 1.7 | 9.6 | 0.00 | 0.00 | 0.00 | 40 | 1010.0 |
| 20260503230117 | 58 | 254 | 1.7 | 9.6 | 0.00 | 0.00 | 0.00 | 40 | 1010.0 |
| 20260503225616 | 58 | 255 | 1.7 | 9.6 | 0.00 | 0.00 | 0.00 | 40 | 1010.0 |
| 20260503225347 | 58 | 255 | 2.6 | 9.6 | 0.00 | 0.00 | 0.00 | 40 | 1010.0 |
| 20260503224615 | 59 | 256 | 2.6 | 9.6 | 0.00 | 0.00 | 0.00 | 40 | 1010.1 |
| 20260503224113 | 59 | 256 | 2.6 | 11.3 | 0.00 | 0.00 | 0.00 | 41 | 1010.1 |
| 20260503223615 | 59 | 255 | 2.6 | 11.3 | 0.00 | 0.00 | 0.00 | 40 | 1010.1 |
| 20260503223106 | 59 | 258 | 2.6 | 9.6 | 0.00 | 0.00 | 0.00 | 39 | 1010.0 |
| 20260503222606 | 59 | 259 | 4.3 | 14.8 | 0.00 | 0.00 | 0.00 | 39 | 1010.1 |
| 20260503222106 | 59 | 259 | 5.2 | 14.8 | 0.00 | 0.00 | 0.00 | 39 | 1010.1 |
| 20260503221607 | 59 | 254 | 3.5 | 13.0 | 0.00 | 0.00 | 0.00 | 38 | 1010.1 |
| 20260503221107 | 60 | 252 | 2.6 | 15.6 | 0.00 | 0.00 | 0.00 | 39 | 1009.9 |
| 20260503220612 | 61 | 252 | 2.6 | 8.7 | 0.00 | 0.00 | 0.00 | 38 | 1009.7 |
| 20260503220607 | 60 | 254 | 2.6 | 15.6 | 0.00 | 0.00 | 0.00 | 38 | 1009.7 |
| 20260503215602 | 61 | 253 | 2.6 | 13.0 | 0.00 | 0.00 | 0.00 | 38 | 1009.9 |
| 20260503215335 | 60 | 253 | 3.5 | 13.0 | 0.00 | 0.00 | 0.00 | 38 | 1009.9 |
| 20260503214603 | 60 | 254 | 4.3 | 10.4 | 0.00 | 0.00 | 0.00 | 38 | 1009.9 |
| 20260503214101 | 60 | 248 | 3.5 | 10.4 | 0.00 | 0.00 | 0.00 | 39 | 1009.9 |
| 20260503213601 | 60 | 250 | 3.5 | 11.3 | 0.00 | 0.00 | 0.00 | 39 | 1009.9 |
| 20260503213331 | 60 | 251 | 2.6 | 11.3 | 0.00 | 0.00 | 0.00 | 39 | 1009.9 |
| 20260503212559 | 60 | 248 | 2.6 | 10.4 | 0.00 | 0.00 | 0.00 | 38 | 1010.0 |
| 20260503212059 | 60 | 249 | 2.6 | 9.6 | 0.00 | 0.00 | 0.00 | 39 | 1009.9 |
| 20260503211557 | 59 | 252 | 3.5 | 9.6 | 0.00 | 0.00 | 0.00 | 38 | 1009.9 |
| 20260503211327 | 60 | 252 | 3.5 | 11.3 | 0.00 | 0.00 | 0.00 | 38 | 1009.9 |
| 20260503210557 | 60 | 251 | 3.5 | 11.3 | 0.00 | 0.00 | 0.00 | 39 | 1009.7 |
| 20260503210056 | 60 | 254 | 3.5 | 11.3 | 0.00 | 0.00 | 0.00 | 39 | 1009.9 |
| 20260503210052 | 60 | 263 | 3.5 | 11.3 | 0.00 | 0.00 | 0.00 | 39 | 1009.9 |
| 20260503205325 | 60 | 244 | 4.3 | 11.3 | 0.00 | 0.00 | 0.00 | 39 | 1009.9 |
| 20260503204551 | 60 | 250 | 3.5 | 11.3 | 0.00 | 0.00 | 0.00 | 38 | 1009.9 |
| 20260503204055 | 60 | 253 | 1.7 | 8.7 | 0.00 | 0.00 | 0.00 | 39 | 1010.1 |
| 20260503204050 | 60 | 250 | 2.6 | 10.4 | 0.00 | 0.00 | 0.00 | 38 | 1010.1 |
| 20260503203314 | 60 | 254 | 3.5 | 14.8 | 0.00 | 0.00 | 0.00 | 39 | 1010.1 |
| 20260503202541 | 60 | 254 | 4.3 | 14.8 | 0.00 | 0.00 | 0.00 | 38 | 1010.3 |
| 20260503202044 | 60 | 244 | 3.5 | 11.3 | 0.00 | 0.00 | 0.00 | 38 | 1010.2 |
| 20260503201543 | 60 | 241 | 4.3 | 14.8 | 0.00 | 0.00 | 0.00 | 39 | 1010.2 |
| 20260503201315 | 60 | 240 | 4.3 | 14.8 | 0.00 | 0.00 | 0.00 | 37 | 1010.4 |
| 20260503200813 | 60 | 247 | 2.6 | 10.4 | 0.00 | 0.00 | 0.00 | 38 | 1010.5 |
| 20260503200308 | 59 | 250 | 3.5 | 10.4 | 0.00 | 0.00 | 0.00 | 39 | 1010.5 |
| 20260503195538 | 59 | 250 | 4.3 | 11.3 | 0.00 | 0.00 | 0.00 | 39 | 1010.5 |
| 20260503195036 | 59 | 246 | 3.5 | 11.3 | 0.00 | 0.00 | 0.00 | 38 | 1010.8 |
| 20260503194538 | 58 | 252 | 3.5 | 11.3 | 0.00 | 0.00 | 0.00 | 40 | 1010.6 |
| 20260503194037 | 59 | 255 | 2.6 | 10.4 | 0.00 | 0.00 | 0.00 | 40 | 1010.9 |
| 20260503193538 | 59 | 259 | 2.6 | 15.6 | 0.00 | 0.00 | 0.00 | 40 | 1010.9 |
| 20260503193307 | 59 | 259 | 3.5 | 15.6 | 0.00 | 0.00 | 0.00 | 40 | 1011.0 |
| 20260503192535 | 58 | 240 | 2.6 | 10.4 | 0.00 | 0.00 | 0.00 | 41 | 1011.0 |
| 20260503192034 | 57 | 238 | 2.6 | 7.0 | 0.00 | 0.00 | 0.00 | 41 | 1011.3 |
| 20260503191533 | 57 | 238 | 2.6 | 11.3 | 0.00 | 0.00 | 0.00 | 41 | 1011.5 |
| 20260503191036 | 57 | 238 | 3.5 | 11.3 | 0.00 | 0.00 | 0.00 | 41 | 1011.3 |
| 20260503190807 | 57 | 234 | 3.5 | 8.7 | 0.00 | 0.00 | 0.00 | 40 | 1011.3 |
| 20260503190308 | 57 | 231 | 2.6 | 9.6 | 0.00 | 0.00 | 0.00 | 42 | 1011.5 |
| 20260503185531 | 57 | 231 | 3.5 | 11.3 | 0.00 | 0.00 | 0.00 | 40 | 1011.6 |
| 20260503185029 | 57 | 229 | 3.5 | 12.2 | 0.00 | 0.00 | 0.00 | 41 | 1011.6 |
| 20260503184531 | 58 | 223 | 3.5 | 12.2 | 0.00 | 0.00 | 0.00 | 41 | 1011.5 |
| 20260503184032 | 57 | 298 | 3.5 | 11.3 | 0.00 | 0.00 | 0.00 | 41 | 1011.5 |
| 20260503183530 | 57 | 296 | 3.5 | 11.3 | 0.00 | 0.00 | 0.00 | 40 | 1011.8 |
| 20260503183302 | 57 | 305 | 3.5 | 11.3 | 0.00 | 0.00 | 0.00 | 41 | 1011.7 |
| 20260503182527 | 57 | 325 | 2.6 | 9.6 | 0.00 | 0.00 | 0.00 | 42 | 1011.7 |
| 20260503182027 | 56 | 325 | 2.6 | 11.3 | 0.00 | 0.00 | 0.00 | 41 | 1011.8 |
| 20260503181526 | 56 | 326 | 4.3 | 12.2 | 0.00 | 0.00 | 0.00 | 41 | 1012.0 |
| 20260503181027 | 56 | 340 | 5.2 | 13.9 | 0.00 | 0.00 | 0.00 | 40 | 1012.0 |
| 20260503180529 | 57 | 333 | 4.3 | 13.9 | 0.00 | 0.00 | 0.00 | 40 | 1012.2 |
| 20260503180033 | 57 | 254 | 2.6 | 8.7 | 0.00 | 0.00 | 0.00 | 43 | 1012.1 |
| 20260503180027 | 58 | 241 | 2.6 | 11.3 | 0.00 | 0.00 | 0.00 | 41 | 1012.1 |
| 20260503175022 | 57 | 254 | 2.6 | 9.6 | 0.00 | 0.00 | 0.00 | 41 | 1012.1 |
| 20260503174522 | 56 | 255 | 3.5 | 12.2 | 0.00 | 0.00 | 0.00 | 41 | 1012.0 |
| 20260503174022 | 56 | 259 | 4.3 | 12.2 | 0.00 | 0.00 | 0.00 | 41 | 1012.2 |
| 20260503173753 | 57 | 256 | 3.5 | 12.2 | 0.00 | 0.00 | 0.00 | 40 | 1012.4 |
| 20260503173022 | 57 | 234 | 3.5 | 13.9 | 0.00 | 0.00 | 0.00 | 42 | 1012.2 |
| 20260503172753 | 56 | 234 | 3.5 | 13.9 | 0.00 | 0.00 | 0.00 | 41 | 1012.2 |
| 20260503172023 | 56 | 246 | 3.5 | 13.0 | 0.00 | 0.00 | 0.00 | 43 | 1012.1 |
| 20260503171517 | 55 | 246 | 4.3 | 13.0 | 0.00 | 0.00 | 0.00 | 43 | 1012.3 |
| 20260503171013 | 55 | 248 | 4.3 | 13.0 | 0.00 | 0.00 | 0.00 | 44 | 1012.3 |
| 20260503170513 | 54 | 250 | 4.3 | 13.0 | 0.00 | 0.00 | 0.00 | 43 | 1012.4 |
| 20260503151004 | 50 | 198 | 1.7 | 7.0 | 0.00 | 0.00 | 0.00 | 46 | 1013.6 |
| 20260503150735 | 50 | 198 | 1.7 | 7.0 | 0.00 | 0.01 | 0.00 | 48 | 1013.5 |
| 20260503131208 | 38 | 198 | 0.9 | 5.2 | 0.00 | 0.03 | 0.00 | 85 | 1014.3 |
| 20260503130436 | 37 | 198 | 0.9 | 4.3 | 0.00 | 0.03 | 0.00 | 91 | 1014.2 |
| 20260503110420 | 31 | 198 | 0.0 | 0.0 | 0.00 | 0.03 | 0.00 | 94 | 1014.1 |
| 20260503090358 | 29 | 198 | 0.0 | 0.0 | 0.00 | 0.03 | 0.00 | 93 | 1013.7 |
| 20260503081612 | 29 | 198 | 0.0 | 0.0 | 0.00 | 0.03 | 0.00 | 92 | 1013.6 |
| 20260503080841 | 29 | 198 | 0.0 | 0.0 | 0.00 | 0.03 | 0.00 | 92 | 1013.6 |
| 20260503080334 | 29 | 198 | 0.0 | 0.0 | 0.00 | 0.03 | 0.00 | 92 | 1013.6 |
| 20260503072819 | 30 | 198 | 0.0 | 0.0 | 0.00 | 0.03 | 0.00 | 92 | 1013.6 |
| 20260503072321 | 30 | 198 | 0.0 | 0.0 | 0.00 | 0.03 | 0.00 | 92 | 1013.5 |
| 20260503072316 | 30 | 198 | 0.0 | 0.0 | 0.00 | 0.03 | 0.00 | 92 | 1013.6 |
| 20260503071543 | 30 | 198 | 0.0 | 0.0 | 0.00 | 0.03 | 0.00 | 92 | 1013.5 |
| 20260503070808 | 30 | 198 | 0.0 | 0.0 | 0.00 | 0.03 | 0.00 | 91 | 1013.5 |
| 20260503070307 | 30 | 198 | 0.0 | 0.0 | 0.00 | 0.03 | 0.00 | 91 | 1013.4 |
| 20260503060245 | 31 | 198 | 0.0 | 0.0 | 0.00 | 0.03 | 0.00 | 89 | 1013.8 |
| 20260503054740 | 31 | 198 | 0.0 | 0.0 | 0.00 | 0.03 | 0.00 | 89 | 1013.8 |
| 20260503054239 | 31 | 198 | 0.0 | 0.0 | 0.00 | 0.03 | 0.00 | 89 | 1013.8 |
| 20260503054011 | 31 | 198 | 0.0 | 0.0 | 0.00 | 0.03 | 0.00 | 88 | 1013.8 |
| 20260503053238 | 31 | 198 | 0.0 | 0.0 | 0.00 | 0.03 | 0.00 | 88 | 1013.9 |
| 20260503052738 | 31 | 198 | 0.0 | 0.0 | 0.00 | 0.03 | 0.00 | 88 | 1013.9 |
| 20260503052503 | 32 | 198 | 0.0 | 0.0 | 0.00 | 0.03 | 0.00 | 87 | 1013.9 |
| 20260503052003 | 32 | 198 | 0.0 | 0.0 | 0.00 | 0.03 | 0.00 | 87 | 1013.9 |
| 20260503051228 | 32 | 198 | 0.0 | 0.0 | 0.00 | 0.03 | 0.00 | 87 | 1013.9 |
| 20260503050727 | 32 | 198 | 0.0 | 0.0 | 0.00 | 0.03 | 0.00 | 87 | 1013.9 |
| 20260503050456 | 33 | 198 | 0.0 | 0.0 | 0.00 | 0.03 | 0.00 | 87 | 1013.9 |
| 20260503045724 | 33 | 198 | 0.0 | 0.0 | 0.00 | 0.03 | 0.00 | 86 | 1014.0 |
| 20260503045455 | 33 | 198 | 0.0 | 0.0 | 0.00 | 0.03 | 0.00 | 86 | 1014.0 |
| 20260503044724 | 33 | 198 | 0.0 | 0.0 | 0.00 | 0.03 | 0.00 | 86 | 1014.0 |
| 20260503044224 | 33 | 198 | 0.0 | 0.0 | 0.00 | 0.03 | 0.00 | 86 | 1013.9 |
| 20260503043956 | 34 | 198 | 0.0 | 0.0 | 0.00 | 0.03 | 0.00 | 86 | 1014.0 |
| 20260503043454 | 34 | 198 | 0.0 | 0.0 | 0.00 | 0.03 | 0.00 | 86 | 1014.0 |
| 20260503042722 | 34 | 198 | 0.0 | 0.0 | 0.00 | 0.03 | 0.00 | 85 | 1013.9 |
| 20260503042218 | 35 | 198 | 0.0 | 0.0 | 0.00 | 0.03 | 0.00 | 85 | 1014.0 |
| 20260503041718 | 35 | 198 | 0.0 | 0.0 | 0.00 | 0.03 | 0.00 | 84 | 1014.0 |
| 20260503041218 | 35 | 198 | 0.0 | 0.0 | 0.00 | 0.03 | 0.00 | 84 | 1014.0 |
| 20260503040718 | 35 | 198 | 0.0 | 0.0 | 0.00 | 0.03 | 0.00 | 83 | 1014.0 |
| 20260503040217 | 36 | 198 | 0.0 | 0.0 | 0.00 | 0.03 | 0.00 | 83 | 1014.0 |
| 20260503035714 | 36 | 198 | 0.0 | 0.0 | 0.00 | 0.03 | 0.03 | 83 | 1014.0 |
| 20260503035207 | 36 | 198 | 0.0 | 0.0 | 0.00 | 0.03 | 0.03 | 82 | 1014.0 |
| 20260503034708 | 36 | 198 | 0.0 | 0.0 | 0.00 | 0.03 | 0.03 | 82 | 1014.0 |
| 20260503034434 | 37 | 198 | 0.0 | 0.0 | 0.00 | 0.03 | 0.03 | 82 | 1014.0 |
| 20260503033701 | 37 | 198 | 0.0 | 0.0 | 0.00 | 0.03 | 0.03 | 82 | 1013.9 |
| 20260503033203 | 37 | 198 | 0.0 | 0.0 | 0.00 | 0.03 | 0.03 | 81 | 1013.9 |
| 20260503032656 | 37 | 198 | 0.0 | 0.0 | 0.00 | 0.03 | 0.03 | 81 | 1014.0 |
| 20260503032200 | 37 | 198 | 0.0 | 0.0 | 0.00 | 0.03 | 0.03 | 80 | 1014.0 |
| 20260503032154 | 37 | 198 | 0.0 | 0.0 | 0.00 | 0.03 | 0.03 | 81 | 1014.0 |
| 20260503031149 | 37 | 198 | 0.0 | 0.0 | 0.00 | 0.03 | 0.03 | 79 | 1014.1 |
| 20260503030651 | 37 | 198 | 0.0 | 0.0 | 0.00 | 0.03 | 0.03 | 79 | 1014.1 |
| 20260503030142 | 37 | 198 | 0.0 | 0.0 | 0.00 | 0.03 | 0.03 | 79 | 1014.1 |
| 20260503025913 | 38 | 198 | 0.0 | 0.0 | 0.00 | 0.03 | 0.03 | 79 | 1014.2 |
| 20260503025411 | 38 | 198 | 0.0 | 0.0 | 0.00 | 0.03 | 0.03 | 78 | 1014.1 |
| 20260503024637 | 38 | 198 | 0.0 | 0.0 | 0.00 | 0.03 | 0.03 | 78 | 1014.2 |
| 20260503024139 | 38 | 198 | 0.0 | 0.0 | 0.00 | 0.03 | 0.03 | 78 | 1014.2 |
| 20260503023906 | 38 | 198 | 0.0 | 0.0 | 0.00 | 0.03 | 0.03 | 78 | 1014.3 |
| 20260503023133 | 38 | 198 | 0.0 | 0.0 | 0.00 | 0.03 | 0.03 | 78 | 1014.3 |
| 20260503022633 | 38 | 198 | 0.0 | 0.0 | 0.00 | 0.03 | 0.03 | 77 | 1014.3 |
| 20260503022133 | 38 | 198 | 0.0 | 0.0 | 0.00 | 0.03 | 0.03 | 76 | 1014.3 |
| 20260503021631 | 38 | 198 | 0.0 | 0.0 | 0.00 | 0.03 | 0.03 | 76 | 1014.3 |
| 20260503021131 | 38 | 198 | 0.0 | 0.0 | 0.00 | 0.03 | 0.03 | 74 | 1014.3 |
| 20260503020858 | 38 | 198 | 0.0 | 0.0 | 0.00 | 0.03 | 0.03 | 74 | 1014.3 |
| 20260503020359 | 39 | 198 | 0.0 | 0.0 | 0.00 | 0.03 | 0.03 | 74 | 1014.3 |
| 20260503015628 | 39 | 198 | 0.0 | 0.0 | 0.00 | 0.03 | 0.03 | 73 | 1014.2 |
| 20260503015128 | 39 | 198 | 0.0 | 0.0 | 0.00 | 0.03 | 0.03 | 72 | 1014.2 |
| 20260503014856 | 39 | 198 | 0.0 | 0.0 | 0.00 | 0.03 | 0.03 | 76 | 1014.2 |
| 20260503014125 | 39 | 198 | 0.0 | 0.0 | 0.00 | 0.03 | 0.03 | 71 | 1014.2 |
| 20260503013619 | 40 | 198 | 0.0 | 0.0 | 0.00 | 0.03 | 0.03 | 71 | 1014.2 |
| 20260503013117 | 40 | 198 | 0.0 | 0.0 | 0.00 | 0.03 | 0.03 | 71 | 1014.2 |
| 20260503012615 | 40 | 198 | 0.0 | 0.0 | 0.00 | 0.03 | 0.03 | 70 | 1014.1 |
| 20260503012114 | 40 | 198 | 0.0 | 0.0 | 0.00 | 0.03 | 0.03 | 69 | 1014.1 |
| 20260503011612 | 40 | 198 | 0.0 | 0.0 | 0.00 | 0.03 | 0.03 | 68 | 1014.2 |
| 20260503011107 | 40 | 198 | 0.0 | 0.0 | 0.00 | 0.03 | 0.03 | 68 | 1014.1 |
| 20260503010605 | 40 | 198 | 0.0 | 0.0 | 0.00 | 0.03 | 0.03 | 66 | 1014.1 |
| 20260503010103 | 41 | 198 | 0.0 | 0.0 | 0.00 | 0.03 | 0.03 | 65 | 1014.0 |
| 20260503005601 | 41 | 198 | 0.0 | 0.9 | 0.00 | 0.03 | 0.03 | 64 | 1014.0 |
| 20260503005102 | 41 | 198 | 0.0 | 0.9 | 0.00 | 0.03 | 0.03 | 67 | 1013.9 |
| 20260503004827 | 41 | 198 | 0.0 | 0.9 | 0.00 | 0.03 | 0.03 | 67 | 1013.8 |
| 20260503004053 | 41 | 198 | 0.0 | 0.9 | 0.00 | 0.03 | 0.03 | 64 | 1013.7 |
| 20260503003551 | 41 | 198 | 0.0 | 0.9 | 0.00 | 0.03 | 0.03 | 66 | 1013.6 |
| 20260503003319 | 41 | 198 | 0.0 | 0.9 | 0.00 | 0.03 | 0.03 | 66 | 1013.7 |
| 20260503002821 | 41 | 198 | 0.0 | 0.9 | 0.00 | 0.03 | 0.03 | 65 | 1013.8 |
| 20260503002043 | 41 | 198 | 0.0 | 0.9 | 0.00 | 0.03 | 0.03 | 63 | 1013.7 |